ACA7819 YSSY-YMLT

Flight info

Callsign ACA7819
Flight time 1h 21m
Altitude 36000
Route GROOK1 WOL H20 OTKED J22 LT DCT
Aircraft A320/M-SDE3FGHIRWY/LB1

Departure

Time 2026-04-22 01:20
Airport Sydney Kingsford Smith International Airport (YSSY)

Arrival

Time 2026-04-22 02:42
Airport Launceston Airport (YMLT)
Time Latitude Longitude Altitude Speed Heading
2026-04-22 00:49 -33.93509 151.18004 28 ft 0 kts 288°
2026-04-22 01:00 -33.93509 151.18003 30 ft 0 kts 288°
2026-04-22 01:02 -33.93509 151.18004 30 ft 0 kts 288°
2026-04-22 01:09 -33.93515 151.18033 30 ft 4 kts 274°
2026-04-22 01:10 -33.93512 151.18062 30 ft 4 kts 232°
2026-04-22 01:10 -33.93501 151.18073 30 ft 0 kts 190°
2026-04-22 01:12 -33.93509 151.18071 30 ft 7 kts 190°
2026-04-22 01:13 -33.93608 151.18051 30 ft 19 kts 186°
2026-04-22 01:13 -33.93727 151.18056 30 ft 16 kts 171°
2026-04-22 01:13 -33.93762 151.18060 30 ft 0 kts 181°
2026-04-22 01:13 -33.93775 151.18047 30 ft 6 kts 236°
2026-04-22 01:14 -33.93787 151.18003 30 ft 5 kts 253°
2026-04-22 01:14 -33.93798 151.17957 30 ft 10 kts 256°
2026-04-22 01:14 -33.93820 151.17850 30 ft 13 kts 255°
2026-04-22 01:14 -33.93844 151.17751 30 ft 12 kts 253°
2026-04-22 01:15 -33.93866 151.17662 29 ft 11 kts 256°
2026-04-22 01:15 -33.93832 151.17602 29 ft 9 kts 326°
2026-04-22 01:15 -33.93779 151.17579 29 ft 7 kts 347°
2026-04-22 01:15 -33.93732 151.17567 29 ft 6 kts 349°
2026-04-22 01:16 -33.93693 151.17559 29 ft 5 kts 350°
2026-04-22 01:16 -33.93654 151.17550 29 ft 9 kts 349°
2026-04-22 01:16 -33.93564 151.17530 29 ft 14 kts 349°
2026-04-22 01:16 -33.93472 151.17507 30 ft 13 kts 353°
2026-04-22 01:17 -33.93391 151.17504 30 ft 11 kts 358°
2026-04-22 01:17 -33.93320 151.17487 30 ft 10 kts 347°
2026-04-22 01:17 -33.93237 151.17465 30 ft 15 kts 348°
2026-04-22 01:17 -33.93123 151.17439 30 ft 18 kts 349°
2026-04-22 01:18 -33.93008 151.17407 30 ft 16 kts 340°
2026-04-22 01:18 -33.92960 151.17313 30 ft 8 kts 281°
2026-04-22 01:18 -33.92957 151.17298 30 ft 0 kts 281°
2026-04-22 01:19 -33.92956 151.17289 31 ft 7 kts 279°
2026-04-22 01:19 -33.92989 151.17202 30 ft 13 kts 214°
2026-04-22 01:19 -33.93084 151.17198 30 ft 17 kts 168°
2026-04-22 01:20 -33.93384 151.17279 28 ft 78 kts 167°
2026-04-22 01:20 -33.94104 151.17467 27 ft 131 kts 167°
2026-04-22 01:20 -33.95127 151.17757 148 ft 163 kts 165°
2026-04-22 01:20 -33.96246 151.17919 794 ft 167 kts 178°
2026-04-22 01:21 -33.97398 151.17872 1615 ft 164 kts 182°
2026-04-22 01:21 -33.98579 151.17790 2168 ft 180 kts 182°
2026-04-22 01:21 -33.99903 151.17698 2591 ft 199 kts 182°
2026-04-22 01:21 -34.01360 151.17599 3041 ft 218 kts 182°
2026-04-22 01:22 -34.02881 151.17596 3767 ft 223 kts 169°
2026-04-22 01:22 -34.04404 151.18063 4534 ft 229 kts 165°
2026-04-22 01:22 -34.06017 151.18599 5036 ft 249 kts 164°
2026-04-22 01:22 -34.07692 151.19162 5826 ft 255 kts 164°
2026-04-22 01:23 -34.09412 151.19742 6710 ft 258 kts 163°
2026-04-22 01:23 -34.11163 151.20332 7502 ft 263 kts 163°
2026-04-22 01:23 -34.12940 151.20927 8307 ft 266 kts 162°
2026-04-22 01:23 -34.14739 151.21527 9144 ft 269 kts 162°
2026-04-22 01:24 -34.16532 151.22125 9948 ft 273 kts 164°
2026-04-22 01:24 -34.18449 151.22365 10670 ft 283 kts 181°
2026-04-22 01:24 -34.20446 151.21806 11032 ft 306 kts 201°
2026-04-22 01:24 -34.22243 151.20326 11672 ft 319 kts 222°
2026-04-22 01:25 -34.23737 151.18301 12419 ft 324 kts 226°
2026-04-22 01:25 -34.25198 151.16248 13169 ft 327 kts 226°
2026-04-22 01:25 -34.26683 151.14153 13914 ft 330 kts 225°
2026-04-22 01:25 -34.28187 151.12028 14592 ft 333 kts 225°
2026-04-22 01:26 -34.29701 151.09888 15260 ft 336 kts 225°
2026-04-22 01:26 -34.31225 151.07736 15926 ft 338 kts 225°
2026-04-22 01:26 -34.32765 151.05563 16576 ft 341 kts 224°
2026-04-22 01:26 -34.34320 151.03368 17213 ft 344 kts 225°
2026-04-22 01:27 -34.35869 151.01184 17833 ft 347 kts 224°
2026-04-22 01:27 -34.37495 150.99000 18457 ft 348 kts 219°
2026-04-22 01:27 -34.39328 150.96987 18657 ft 363 kts 217°
2026-04-22 01:27 -34.41262 150.94904 18776 ft 379 kts 217°
2026-04-22 01:28 -34.43279 150.92736 18893 ft 395 kts 217°
2026-04-22 01:28 -34.45374 150.90477 19009 ft 409 kts 218°
2026-04-22 01:28 -34.47503 150.88167 19122 ft 421 kts 218°
2026-04-22 01:28 -34.49708 150.85764 19248 ft 431 kts 218°
2026-04-22 01:29 -34.51956 150.83310 19474 ft 437 kts 218°
2026-04-22 01:29 -34.54223 150.80836 19809 ft 438 kts 218°
2026-04-22 01:29 -34.56649 150.78597 20162 ft 435 kts 209°
2026-04-22 01:29 -34.59280 150.76791 20508 ft 434 kts 205°
2026-04-22 01:30 -34.61908 150.75058 20842 ft 435 kts 205°
2026-04-22 01:30 -34.64572 150.73299 21149 ft 437 kts 206°
2026-04-22 01:30 -34.67252 150.71528 21455 ft 438 kts 206°
2026-04-22 01:30 -34.69934 150.69752 21772 ft 439 kts 206°
2026-04-22 01:31 -34.72620 150.67971 22084 ft 440 kts 206°
2026-04-22 01:31 -34.75315 150.66183 22374 ft 441 kts 206°
2026-04-22 01:31 -34.77982 150.64409 22656 ft 442 kts 206°
2026-04-22 01:31 -34.80682 150.62611 22940 ft 443 kts 206°
2026-04-22 01:32 -34.83396 150.60805 23219 ft 444 kts 206°
2026-04-22 01:32 -34.86114 150.58994 23476 ft 444 kts 206°
2026-04-22 01:32 -34.88797 150.57203 23710 ft 445 kts 206°
2026-04-22 01:32 -34.91524 150.55384 23995 ft 445 kts 206°
2026-04-22 01:33 -34.94264 150.53647 24277 ft 442 kts 202°
2026-04-22 01:33 -34.97144 150.52386 24554 ft 439 kts 194°
2026-04-22 01:33 -35.00104 150.51499 24841 ft 437 kts 192°
2026-04-22 01:33 -35.03063 150.50624 25123 ft 436 kts 193°
2026-04-22 01:34 -35.06008 150.49748 25416 ft 435 kts 193°
2026-04-22 01:34 -35.08917 150.48881 25705 ft 435 kts 193°
2026-04-22 01:34 -35.11853 150.48010 25996 ft 434 kts 193°
2026-04-22 01:34 -35.14798 150.47136 26296 ft 433 kts 193°
2026-04-22 01:35 -35.17729 150.46266 26609 ft 432 kts 193°
2026-04-22 01:35 -35.20617 150.45405 26903 ft 431 kts 193°
2026-04-22 01:35 -35.23540 150.44531 27177 ft 432 kts 193°
2026-04-22 01:35 -35.26454 150.43659 27482 ft 431 kts 193°
2026-04-22 01:36 -35.29367 150.42787 27791 ft 430 kts 193°
2026-04-22 01:36 -35.32281 150.41915 28097 ft 430 kts 193°
2026-04-22 01:36 -35.35190 150.41045 28423 ft 429 kts 193°
2026-04-22 01:36 -35.38051 150.40188 28764 ft 428 kts 193°
2026-04-22 01:37 -35.40947 150.39322 29102 ft 427 kts 194°
2026-04-22 01:37 -35.43838 150.38455 29450 ft 426 kts 194°
2026-04-22 01:37 -35.46724 150.37589 29789 ft 425 kts 194°
2026-04-22 01:37 -35.49594 150.36729 30122 ft 424 kts 194°
2026-04-22 01:38 -35.52464 150.35867 30440 ft 424 kts 194°
2026-04-22 01:38 -35.55325 150.35006 30736 ft 423 kts 194°
2026-04-22 01:38 -35.58147 150.34153 31013 ft 422 kts 194°
2026-04-22 01:38 -35.60996 150.33290 31296 ft 422 kts 194°
2026-04-22 01:39 -35.63848 150.32428 31584 ft 421 kts 194°
2026-04-22 01:39 -35.66699 150.31568 31867 ft 420 kts 194°
2026-04-22 01:39 -35.69511 150.30723 32147 ft 420 kts 194°
2026-04-22 01:39 -35.72349 150.29868 32425 ft 419 kts 194°
2026-04-22 01:40 -35.75187 150.29012 32705 ft 418 kts 194°
2026-04-22 01:40 -35.78016 150.28157 32980 ft 418 kts 194°
2026-04-22 01:40 -35.80845 150.27301 33250 ft 417 kts 194°
2026-04-22 01:40 -35.83632 150.26456 33523 ft 417 kts 194°
2026-04-22 01:41 -35.86448 150.25601 33802 ft 416 kts 194°
2026-04-22 01:41 -35.89261 150.24747 34086 ft 415 kts 194°
2026-04-22 01:41 -35.92066 150.23894 34359 ft 415 kts 194°
2026-04-22 01:41 -35.94842 150.23049 34595 ft 414 kts 194°
2026-04-22 01:42 -35.97642 150.22197 34837 ft 414 kts 194°
2026-04-22 01:42 -36.00445 150.21341 35077 ft 413 kts 194°
2026-04-22 01:42 -36.03205 150.20497 35321 ft 412 kts 195°
2026-04-22 01:42 -36.05990 150.19645 35557 ft 411 kts 195°
2026-04-22 01:43 -36.08769 150.18799 35764 ft 410 kts 195°
2026-04-22 01:43 -36.11541 150.17957 35977 ft 410 kts 195°
2026-04-22 01:43 -36.14315 150.17112 36156 ft 409 kts 195°
2026-04-22 01:43 -36.17047 150.16280 36335 ft 410 kts 195°
2026-04-22 01:44 -36.22636 150.14578 36391 ft 416 kts 195°
2026-04-22 01:44 -36.28297 150.12846 36392 ft 420 kts 195°
2026-04-22 01:45 -36.33949 150.11105 36391 ft 421 kts 195°
2026-04-22 01:45 -36.39657 150.09346 36391 ft 421 kts 195°
2026-04-22 01:46 -36.45306 150.07602 36390 ft 421 kts 195°
2026-04-22 01:46 -36.51011 150.05842 36397 ft 422 kts 195°
2026-04-22 01:47 -36.56687 150.04098 36399 ft 422 kts 195°
2026-04-22 01:47 -36.62399 150.02331 36402 ft 423 kts 195°
2026-04-22 01:48 -36.68086 150.00561 36402 ft 423 kts 195°
2026-04-22 01:48 -36.73801 149.98789 36402 ft 423 kts 195°
2026-04-22 01:49 -36.79518 149.97016 36404 ft 423 kts 195°
2026-04-22 01:49 -36.85202 149.95252 36404 ft 423 kts 195°
2026-04-22 01:50 -36.90922 149.93471 36404 ft 423 kts 195°
2026-04-22 01:50 -36.96634 149.91685 36402 ft 423 kts 195°
2026-04-22 01:51 -37.02314 149.89911 36397 ft 423 kts 195°
2026-04-22 01:51 -37.08023 149.88120 36383 ft 423 kts 195°
2026-04-22 01:52 -37.13765 149.86325 36380 ft 424 kts 195°
2026-04-22 01:52 -37.19453 149.84532 36370 ft 424 kts 195°
2026-04-22 01:53 -37.25166 149.82740 36379 ft 424 kts 195°
2026-04-22 01:53 -37.30897 149.80933 36372 ft 425 kts 195°
2026-04-22 01:54 -37.36618 149.79122 36370 ft 425 kts 195°
2026-04-22 01:54 -37.42382 149.77295 36382 ft 426 kts 195°
2026-04-22 01:55 -37.48100 149.75486 36374 ft 426 kts 195°
2026-04-22 01:55 -37.53866 149.73657 36370 ft 426 kts 195°
2026-04-22 01:56 -37.59598 149.71674 36369 ft 426 kts 202°
2026-04-22 01:56 -37.64887 149.68385 36390 ft 426 kts 207°
2026-04-22 01:57 -37.70128 149.64938 36382 ft 426 kts 207°
2026-04-22 01:57 -37.75397 149.61475 36382 ft 427 kts 207°
2026-04-22 01:58 -37.79784 149.58594 36370 ft 427 kts 207°
2026-04-22 01:58 -37.85058 149.55109 36369 ft 428 kts 208°
2026-04-22 01:59 -37.90348 149.51611 36378 ft 428 kts 207°
2026-04-22 01:59 -37.95635 149.48121 36377 ft 429 kts 207°
2026-04-22 02:00 -38.00898 149.44634 36388 ft 429 kts 208°
2026-04-22 02:00 -38.06208 149.41106 36389 ft 430 kts 207°
2026-04-22 02:01 -38.11494 149.37591 36394 ft 430 kts 208°
2026-04-22 02:01 -38.16815 149.34039 36395 ft 431 kts 208°
2026-04-22 02:02 -38.22105 149.30504 36393 ft 431 kts 208°
2026-04-22 02:02 -38.27423 149.26953 36395 ft 431 kts 207°
2026-04-22 02:03 -38.32749 149.23407 36391 ft 431 kts 207°
2026-04-22 02:03 -38.38038 149.19864 36389 ft 432 kts 208°
2026-04-22 02:04 -38.46018 149.14482 36378 ft 432 kts 208°
2026-04-22 02:05 -38.51304 149.10923 36383 ft 432 kts 208°
2026-04-22 02:05 -38.56625 149.07335 36387 ft 432 kts 208°
2026-04-22 02:06 -38.61954 149.03735 36382 ft 432 kts 208°
2026-04-22 02:06 -38.67258 149.00152 36367 ft 433 kts 208°
2026-04-22 02:07 -38.72559 148.96557 36370 ft 433 kts 208°
2026-04-22 02:07 -38.77891 148.92932 36375 ft 434 kts 208°
2026-04-22 02:08 -38.83243 148.89298 36379 ft 434 kts 208°
2026-04-22 02:08 -38.88568 148.85673 36380 ft 435 kts 208°
2026-04-22 02:09 -38.93927 148.82008 36385 ft 436 kts 208°
2026-04-22 02:09 -38.99281 148.78342 36387 ft 436 kts 208°
2026-04-22 02:10 -39.04607 148.74690 36379 ft 436 kts 208°
2026-04-22 02:10 -39.09971 148.71015 36374 ft 437 kts 208°
2026-04-22 02:11 -39.15350 148.67319 36370 ft 437 kts 208°
2026-04-22 02:11 -39.20726 148.63616 36368 ft 438 kts 208°
2026-04-22 02:12 -39.26084 148.59922 36376 ft 439 kts 208°
2026-04-22 02:12 -39.31480 148.56195 36383 ft 439 kts 208°
2026-04-22 02:13 -39.36856 148.52465 36390 ft 440 kts 208°
2026-04-22 02:13 -39.42266 148.48718 36391 ft 440 kts 208°
2026-04-22 02:14 -39.47652 148.44988 36385 ft 440 kts 209°
2026-04-22 02:14 -39.53068 148.41224 36384 ft 441 kts 209°
2026-04-22 02:15 -39.58439 148.37470 36384 ft 441 kts 209°
2026-04-22 02:15 -39.63855 148.33676 36381 ft 441 kts 209°
2026-04-22 02:16 -39.69236 148.29912 36252 ft 442 kts 209°
2026-04-22 02:16 -39.71953 148.28011 35997 ft 442 kts 209°
2026-04-22 02:16 -39.74670 148.26110 35747 ft 442 kts 209°
2026-04-22 02:16 -39.77379 148.24211 35500 ft 443 kts 209°
2026-04-22 02:17 -39.80060 148.22330 35257 ft 443 kts 209°
2026-04-22 02:17 -39.82789 148.20413 35012 ft 445 kts 209°
2026-04-22 02:17 -39.85518 148.18493 34771 ft 445 kts 210°
2026-04-22 02:17 -39.88248 148.16567 34532 ft 446 kts 210°
2026-04-22 02:18 -39.90987 148.14634 34281 ft 447 kts 210°
2026-04-22 02:18 -39.93693 148.12723 34002 ft 448 kts 210°
2026-04-22 02:18 -39.96442 148.10782 33744 ft 450 kts 210°
2026-04-22 02:18 -39.99213 148.08827 33473 ft 450 kts 209°
2026-04-22 02:19 -40.01978 148.06873 33203 ft 451 kts 210°
2026-04-22 02:19 -40.04707 148.04944 32945 ft 451 kts 210°
2026-04-22 02:19 -40.07473 148.02983 32684 ft 452 kts 210°
2026-04-22 02:19 -40.10275 148.01111 32423 ft 454 kts 204°
2026-04-22 02:20 -40.13204 147.99512 32169 ft 455 kts 204°
2026-04-22 02:20 -40.16103 147.97940 31917 ft 457 kts 204°
2026-04-22 02:20 -40.19047 147.96347 31666 ft 457 kts 204°
2026-04-22 02:20 -40.21991 147.94754 31417 ft 458 kts 204°
2026-04-22 02:21 -40.24944 147.93156 31170 ft 460 kts 204°
2026-04-22 02:21 -40.27919 147.91543 30926 ft 462 kts 204°
2026-04-22 02:21 -40.30896 147.89925 30683 ft 463 kts 203°
2026-04-22 02:21 -40.33852 147.88314 30442 ft 464 kts 203°
2026-04-22 02:22 -40.36839 147.86682 30168 ft 465 kts 205°
2026-04-22 02:22 -40.39833 147.85041 29878 ft 466 kts 204°
2026-04-22 02:22 -40.42831 147.83401 29595 ft 467 kts 205°
2026-04-22 02:22 -40.45847 147.81755 29329 ft 470 kts 204°
2026-04-22 02:23 -40.48840 147.80121 29057 ft 472 kts 204°
2026-04-22 02:23 -40.51895 147.78448 28781 ft 474 kts 204°
2026-04-22 02:23 -40.54940 147.76781 28513 ft 475 kts 204°
2026-04-22 02:23 -40.57963 147.75124 28248 ft 476 kts 204°
2026-04-22 02:24 -40.61017 147.73450 27504 ft 474 kts 204°
2026-04-22 02:24 -40.64084 147.71765 26745 ft 479 kts 204°
2026-04-22 02:24 -40.67173 147.70063 26491 ft 483 kts 204°
2026-04-22 02:24 -40.70286 147.68340 26336 ft 484 kts 204°
2026-04-22 02:25 -40.73365 147.66637 26387 ft 486 kts 204°
2026-04-22 02:25 -40.76482 147.64916 26387 ft 486 kts 204°
2026-04-22 02:25 -40.79610 147.63189 26382 ft 487 kts 204°
2026-04-22 02:25 -40.82743 147.61458 26376 ft 487 kts 204°
2026-04-22 02:26 -40.85862 147.59734 25771 ft 483 kts 204°
2026-04-22 02:26 -40.88992 147.58003 24266 ft 490 kts 204°
2026-04-22 02:26 -40.92091 147.56284 23138 ft 487 kts 204°
2026-04-22 02:26 -40.95209 147.54547 22093 ft 483 kts 204°
2026-04-22 02:27 -40.98297 147.52826 21117 ft 479 kts 204°
2026-04-22 02:27 -41.01355 147.51120 20219 ft 475 kts 205°
2026-04-22 02:27 -41.04404 147.49417 19353 ft 472 kts 205°
2026-04-22 02:27 -41.07392 147.47750 18526 ft 469 kts 205°
2026-04-22 02:28 -41.10397 147.46076 17675 ft 465 kts 205°
2026-04-22 02:28 -41.13358 147.44426 17129 ft 454 kts 205°
2026-04-22 02:28 -41.16196 147.42845 16961 ft 427 kts 205°
2026-04-22 02:28 -41.18839 147.41373 16799 ft 397 kts 205°
2026-04-22 02:29 -41.21271 147.40015 16669 ft 370 kts 205°
2026-04-22 02:29 -41.23573 147.38729 16464 ft 349 kts 205°
2026-04-22 02:29 -41.25796 147.37518 15746 ft 346 kts 200°
2026-04-22 02:29 -41.28229 147.37079 14623 ft 360 kts 177°
2026-04-22 02:30 -41.30683 147.37850 13378 ft 369 kts 155°
2026-04-22 02:30 -41.32865 147.39695 11987 ft 377 kts 141°
2026-04-22 02:30 -41.34961 147.41999 11043 ft 398 kts 140°
2026-04-22 02:30 -41.37060 147.44386 10637 ft 385 kts 140°
2026-04-22 02:31 -41.39029 147.46661 10315 ft 367 kts 139°
2026-04-22 02:31 -41.40848 147.48774 10128 ft 336 kts 140°
2026-04-22 02:31 -41.42536 147.50739 9977 ft 309 kts 140°
2026-04-22 02:31 -41.44106 147.52588 9987 ft 296 kts 140°
2026-04-22 02:32 -41.45641 147.54416 9995 ft 295 kts 140°
2026-04-22 02:32 -41.47172 147.56226 9995 ft 294 kts 140°
2026-04-22 02:32 -41.48796 147.57784 9996 ft 289 kts 155°
2026-04-22 02:32 -41.50642 147.58853 9996 ft 288 kts 159°
2026-04-22 02:33 -41.52505 147.59857 9995 ft 288 kts 160°
2026-04-22 02:33 -41.54369 147.60841 9991 ft 289 kts 161°
2026-04-22 02:33 -41.56250 147.61832 9994 ft 290 kts 160°
2026-04-22 02:33 -41.58115 147.62795 9969 ft 289 kts 165°
2026-04-22 02:34 -41.60077 147.63039 9608 ft 281 kts 191°
2026-04-22 02:34 -41.61864 147.62101 9220 ft 275 kts 215°
2026-04-22 02:34 -41.63402 147.60582 8790 ft 274 kts 220°
2026-04-22 02:34 -41.64879 147.59037 8416 ft 271 kts 220°
2026-04-22 02:35 -41.66363 147.57489 8007 ft 270 kts 220°
2026-04-22 02:35 -41.67844 147.55941 7647 ft 268 kts 220°
2026-04-22 02:35 -41.69317 147.54417 7282 ft 266 kts 222°
2026-04-22 02:35 -41.70452 147.52527 6916 ft 259 kts 248°
2026-04-22 02:36 -41.70845 147.50215 6569 ft 253 kts 268°
2026-04-22 02:36 -41.70871 147.47888 6134 ft 252 kts 278°
2026-04-22 02:36 -41.70375 147.45668 5764 ft 248 kts 292°
2026-04-22 02:36 -41.69739 147.43574 5626 ft 236 kts 292°
2026-04-22 02:37 -41.69127 147.41590 5485 ft 224 kts 292°
2026-04-22 02:37 -41.68553 147.39740 5374 ft 213 kts 292°
2026-04-22 02:37 -41.67999 147.37954 5217 ft 204 kts 293°
2026-04-22 02:37 -41.67458 147.36214 4940 ft 201 kts 294°
2026-04-22 02:38 -41.66921 147.34492 4623 ft 199 kts 295°
2026-04-22 02:38 -41.66394 147.32807 4304 ft 198 kts 295°
2026-04-22 02:38 -41.65818 147.31183 4145 ft 185 kts 307°
2026-04-22 02:38 -41.64965 147.30060 4030 ft 160 kts 326°
2026-04-22 02:39 -41.64099 147.29318 3892 ft 141 kts 326°
2026-04-22 02:39 -41.63295 147.28628 3540 ft 136 kts 327°
2026-04-22 02:39 -41.62494 147.27940 3113 ft 137 kts 328°
2026-04-22 02:39 -41.61713 147.27270 3020 ft 129 kts 328°
2026-04-22 02:40 -41.60950 147.26616 2826 ft 131 kts 327°
2026-04-22 02:40 -41.60190 147.25979 2562 ft 131 kts 329°
2026-04-22 02:40 -41.59424 147.25334 2242 ft 130 kts 327°
2026-04-22 02:40 -41.58660 147.24671 1897 ft 130 kts 326°
2026-04-22 02:41 -41.57933 147.23997 1573 ft 129 kts 324°
2026-04-22 02:41 -41.57181 147.23327 1265 ft 127 kts 326°
2026-04-22 02:41 -41.56426 147.22722 985 ft 127 kts 327°
2026-04-22 02:41 -41.55674 147.22109 734 ft 125 kts 327°
2026-04-22 02:42 -41.54963 147.21480 573 ft 122 kts 327°
2026-04-22 02:42 -41.54358 147.20962 560 ft 71 kts 328°
2026-04-22 02:42 -41.54151 147.20789 561 ft 22 kts 328°
2026-04-22 02:42 -41.54037 147.20686 562 ft 13 kts 310°
2026-04-22 02:43 -41.54061 147.20590 562 ft 12 kts 236°
2026-04-22 02:43 -41.54125 147.20579 564 ft 10 kts 150°
2026-04-22 02:43 -41.54175 147.20621 564 ft 5 kts 147°
2026-04-22 02:43 -41.54199 147.20642 563 ft 4 kts 147°
2026-04-22 02:44 -41.54225 147.20663 560 ft 4 kts 147°
2026-04-22 02:44 -41.54251 147.20686 560 ft 4 kts 147°
2026-04-22 02:44 -41.54277 147.20708 561 ft 4 kts 148°
2026-04-22 02:44 -41.54301 147.20705 565 ft 3 kts 220°
2026-04-22 02:45 -41.54311 147.20682 557 ft 2 kts 250°
2026-04-22 02:45 -41.54309 147.20671 557 ft 0 kts 290°